Location: Caltech
(34.1382°N, 118.1253°W)
Time: 07:57:24
(UTC-07:00)

FENGYUN 3A - Visible Passes

Search period start: 30 July 2016 00:00
Search period end: 09 August 2016 00:00
Orbit: 819 x 834 km, 98.4° (Epoch: 30 July)

Date Brightness Start Highest point End Pass type
(mag) Time Alt. Az. Time Alt. Az. Time Alt. Az.
30 Jul 5.3 21:19:46 10° SSW 21:24:30 31° W 21:29:15 10° NW visible
31 Jul 4.6 21:00:23 10° S 21:05:34 48° W 21:10:45 10° NNW visible
01 Aug 3.9 20:41:17 10° S 20:46:40 74° WSW 20:52:03 10° NNW visible
02 Aug 3.7 20:22:27 10° SSE 20:27:49 74° ENE 20:33:11 10° N visible
02 Aug 6.4 22:07:14 10° WSW 22:08:30 11° W 22:09:46 10° WNW visible
03 Aug 6.1 21:45:56 10° SW 21:49:26 18° W 21:52:58 10° NW visible
04 Aug 5.5 21:25:57 10° SSW 21:30:26 27° W 21:34:56 10° NW visible
05 Aug 4.9 21:06:26 10° SSW 21:11:29 41° W 21:16:32 10° NNW visible
06 Aug 4.1 20:47:15 10° S 20:52:34 63° WSW 20:57:54 10° NNW visible
07 Aug 3.6 20:28:20 10° SSE 20:33:42 85° ENE 20:39:05 10° NNW visible
08 Aug 3.8 20:09:39 10° SSE 20:14:53 56° ENE 20:20:08 10° N visible
08 Aug 6.2 21:52:26 10° SW 21:55:24 15° W 21:58:23 10° WNW visible
